Weather in Krasnyy Klyuch

Russia / Republic of Tatarstan     55°40′59″N   51°49′05″E
temp.,
°C
wind,
m/s
gust,
m/s
humid.,
%
clouds,
%
prec.,
mm/h
press.,
hPa
HPBL,
m
25 february, thu
thu2500:00−28nw12990 0.0 103319
03:00−29w121000 0.0 103419
06:00−29ssw129955 0.0 103319
09:00−26ssw349731 0.0 1031140
12:00−21s3592100 0.0 1029275
15:00−18sse5888100 0.0 1026403
18:00−18sse5991100 0.0 1024408
21:00−19sse51096100 0.4 1022491
26 february, fri
fri2600:00−19sse4109699 0.2 1021441
03:00−20se499699 0.3 1020334
06:00−20se489599 0.1 1019356
09:00−19se589397 0.1 1019335
12:00−16se589199 0.0 1018457
15:00−15se6991100 0.1 1017547
18:00−17se61292100 0.0 1014390
21:00−16se71491100 0.0 1010468
27 february, sat
sat2700:00−14se81595100 1.1 1004529
03:00−12se71294100 5.6 1001581
06:00−11se51095100 1.4 999386
09:00−8ese5795100 1.8 998294
12:00−6e4695100 0.5 997304
15:00−5ene5796100 1.1 998264
18:00−6ene5895100 0.9 998247
21:00−8ne5994100 1.3 999231
28 february, sun
sun2800:00−9ne5994100 0.3 1000258
03:00−12ne599495 0.4 1002300
06:00−15nne5109493 0.1 1003286
09:00−15nne589492 0.2 1005315
12:00−12nne579297 0.1 1006358
15:00−10nne579298 0.2 1008477
18:00−12nne489495 0.1 1010333
21:00−16n349588 0.1 101279
1 march, mon
mon100:00−19n359572 0.0 101491
03:00−22nnw359637 0.0 101683
06:00−23nnw33970 0.0 101849
09:00−19n37940 0.0 1019264
12:00−14n469047 0.0 1020390
15:00−12nw479165 0.0 1021454
18:00−17wnw339795 0.0 102127
21:00−18wsw239289 0.0 102124